[Date Prev][Date Next][Thread Prev][Thread Next] - [Date Index][Thread Index][Author Index]
2 Line ISS Keps 1-29
- Subject: [sarex] 2 Line ISS Keps 1-29
- From: "Dave Larsen PhD" <doc@xxxxxxxxxxx>
- Date: Sat, 29 Jan 2005 01:22:18 -0800
ISS
1 25544U 98067A 05029.14861229 .00083273 00000-0 66236-3 0 6928
2 25544 51.6409 251.8523 0010015 42.0581 51.1993 15.70432026353829
----
Via the sarex mailing list at AMSAT.ORG courtesy of AMSAT-NA.
To unsubscribe, send "unsubscribe sarex" to Majordomo@amsat.org
AMSAT Home